Vorticity
nan nan nan nan nan nan nan nan nan nan nan nan nan nan nan nan nan nan nan nan nan nan
nan 8 7 9 10 7 7 7 7 7 9 10 9 8 9 9 8 8 9 11 7 nan
nan 9 9 10 8 7 8 8 8 9 9 9 9 9 10 8 8 8 8 8 9 nan
nan 8 9 8 8 9 8 9 9 9 9 9 9 9 9 8 9 9 7 7 8 nan
nan 9 9 8 8 8 9 8 9 10 9 9 9 9 9 9 9 10 9 8 8 nan
nan 10 10 9 10 10 10 9 9 9 9 10 10 9 9 10 9 10 10 9 8 nan
nan 10 10 10 10 10 10 11 11 10 10 9 10 12 10 10 9 10 9 9 9 nan
nan 10 10 10 10 11 11 11 10 10 11 10 12 6 5 6 10 9 9 9 9 nan
nan 11 11 11 11 11 11 11 11 11 11 10 10 4 3 3 10 10 10 10 10 nan
nan 11 11 11 11 11 12 12 12 12 11 11 10 9 9 7 9 11 10 9 8 nan
nan 10 10 11 11 12 13 12 13 13 12 11 13 13 11 12 10 11 11 11 9 nan
nan 10 11 11 12 13 13 13 14 13 13 10 12 14 10 12 14 12 14 12 10 nan
nan 12 12 13 14 14 14 13 13 14 16 12 11 17 12 8 10 13 14 14 15 nan
nan nan nan nan nan nan nan nan nan nan nan nan nan nan nan nan nan nan nan nan nan nan
CAPE
0 0 0 0 0 0 0 0 0 0 0 0 0 0 0 0 0 0 3 9 12 6
0 0 0 0 0 0 0 0 0 0 0 0 0 0 0 0 0 0 2 8 1 12
0 0 0 0 1 0 0 1 2 3 2 0 0 0 0 0 0 0 2 7 13 10
0 0 0 2 1 3 5 6 5 3 4 5 4 2 0 0 0 0 1 4 8 6
12 12 12 10 8 8 9 9 10 11 8 6 6 6 5 3 0 2 3 2 10 7
5 7 8 10 10 11 13 11 14 15 13 11 12 11 7 5 4 3 6 7 11 10
6 9 12 13 15 15 14 15 15 16 15 17 16 15 12 14 9 8 7 11 16 12
8 11 13 15 19 18 18 20 20 19 17 17 20 17 17 18 16 16 12 16 14 7
11 13 17 21 20 23 20 16 22 22 22 24 26 20 33 34 30 30 23 16 5 4
13 17 19 22 24 24 18 21 18 16 20 21 21 29 38 40 22 36 31 19 6 5
17 19 20 22 20 19 22 22 21 20 22 21 21 32 31 29 16 27 28 22 7 8
17 15 13 14 11 11 13 13 15 18 17 19 16 26 27 22 17 28 27 20 20 1
9 10 9 12 13 13 11 12 14 14 13 19 16 22 20 16 14 21 23 23 3 11
7 9 10 10 12 7 5 4 4 5 8 10 9 4 21 20 11 20 22 20 6 5